Location: Ariel
(45.9570°N, 122.5700°W)
Time: 02:02:17
(UTC-07:00)

Transit 4A - Pass Details

Date: 23 July 2019
Orbit: 863 x 981 km, 66.8° (Epoch: 20 August)

Event Time Altitude Azimuth Distance (km) Brightness Sun altitude
Rises 04:52:04 0° 273° (W) 3,677 10.6 -8.0°
Reaches altitude 10° 04:55:39 10° 293° (WNW) 2,738 10.1 -7.5°
Maximum altitude 04:59:46 17° 333° (NNW) 2,246 10.1 -6.9°
Drops below altitude 10° 05:03:53 10° 14° (NNE) 2,736 11.2 -6.4°
Sets 05:07:29 0° 33° (NNE) 3,675 12.6 -5.9°
